Flag Weather past 2 weeks in Kowloon, Hong Kong

Now
77 °F

Passing clouds.


Feels Like: 79 °F
Forecast: 74 / 78 °F
Wind: 9 mph from Southeast

Location: National Airport

Current Time: Nov 28, 2014 at 11:00:06 PM

Latest Report: Nov 28, 2014 at 10:30 PM


Visibility: N/A

Pressure: 29.95 "Hg

Humidity: 74%

Dew point: 68 °F

Location of KowloonLocation

Historic Weather in Kowloon — Graph

°F

Kowloon temperature yesterday

Maximum temperature yesterday: 77 °F (at 12:00 PM)
Minimum temperature yesterday: 73 °F (at 12:00 AM)
Average temperature yesterday: 74 °F

Past Weeks' High & Low Weather Summary

 TemperatureHumidityPressure
High82 °F (Nov 23, 1:00 PM)88% (Nov 25, 7:00 AM)30.24 "Hg (Nov 25, 7:00 AM)
Low66 °F (Nov 14, 2:00 AM)44% (Nov 17, 4:00 PM)29.86 "Hg (Nov 25, 3:30 PM)
Average74 °F66%30.04 "Hg
* Reported Nov 13 10:00 PM — Nov 28 10:00 PM, Kowloon, Weather by CustomWeather, © 2014

Note: Actual official high and low records may vary slightly from our data, if they occured in-between our weather recording intervals... More about our weather records

Advertising

Kowloon weather history for previous 24 hours

 ConditionsComfort  
Time TempWeatherWind HumidityBarometerVisibility
10:00 PM
Nov 28
77 °FPassing clouds.8 mph74%29.95 "HgN/A
9:30 PM75 °FPassing clouds.9 mph78%29.95 "HgN/A
9:00 PM77 °FPassing clouds.6 mph74%29.95 "HgN/A
8:30 PM77 °FPassing clouds.7 mph74%29.95 "HgN/A
8:00 PM77 °FPassing clouds.9 mph74%29.95 "HgN/A
7:30 PM79 °FPassing clouds.9 mph70%29.95 "HgN/A
7:00 PM79 °FPassing clouds.12 mph70%29.92 "HgN/A
6:30 PM79 °FPassing clouds.12 mph70%29.92 "HgN/A
6:00 PM77 °FPassing clouds.6 mph74%29.92 "HgN/A
5:30 PM79 °FScattered clouds.3 mph70%29.92 "HgN/A
5:00 PM79 °FScattered clouds.3 mph74%29.92 "HgN/A
4:30 PM79 °FScattered clouds.6 mph74%29.92 "HgN/A
4:00 PM77 °FScattered clouds.9 mph79%29.92 "HgN/A
3:30 PM77 °FScattered clouds.10 mph79%29.92 "HgN/A
3:00 PM79 °FScattered clouds.10 mph74%29.89 "HgN/A
2:30 PM79 °FScattered clouds.10 mph74%29.92 "HgN/A
2:00 PM79 °FScattered clouds.9 mph74%29.92 "HgN/A
1:30 PM81 °FScattered clouds.7 mph66%29.92 "HgN/A
1:00 PM81 °FScattered clouds.12 mph66%29.92 "HgN/A
12:30 PM79 °FScattered clouds.13 mph70%29.95 "HgN/A
11:30 AM81 °FPassing clouds.13 mph66%29.98 "HgN/A
11:00 AM79 °FScattered clouds.14 mph70%29.98 "HgN/A
10:30 AM79 °FScattered clouds.12 mph70%30.01 "HgN/A
10:00 AM77 °FScattered clouds.12 mph74%30.01 "HgN/A
9:30 AM75 °FScattered clouds.14 mph78%30.01 "HgN/A
9:00 AM77 °FScattered clouds.10 mph74%30.01 "HgN/A
8:30 AM75 °FScattered clouds.12 mph78%30.01 "HgN/A
8:00 AM75 °FScattered clouds.14 mph78%30.01 "HgN/A
7:30 AM73 °FScattered clouds.13 mph83%30.01 "Hg6 mi
7:00 AM73 °FPassing clouds.10 mph83%29.98 "Hg5 mi
6:30 AM73 °FPassing clouds.10 mph83%29.98 "Hg5 mi
6:00 AM73 °FPassing clouds.12 mph83%29.98 "Hg5 mi
5:30 AM73 °FPassing clouds.13 mph83%29.95 "Hg5 mi
5:00 AM73 °FPassing clouds.12 mph83%29.95 "Hg5 mi
4:30 AM73 °FPassing clouds.13 mph83%29.95 "Hg6 mi
4:00 AM73 °FPassing clouds.12 mph83%29.95 "Hg6 mi
3:30 AM73 °FPassing clouds.13 mph83%29.95 "Hg6 mi
3:00 AM73 °FPassing clouds.18 mph83%29.98 "Hg6 mi
2:30 AM73 °FPassing clouds.17 mph83%29.98 "Hg5 mi
2:00 AM73 °FPassing clouds.16 mph83%29.98 "Hg6 mi
1:30 AM73 °FPassing clouds.14 mph83%29.98 "Hg6 mi
1:00 AM73 °FPassing clouds.16 mph78%29.98 "Hg6 mi
12:30 AM73 °FPassing clouds.16 mph78%29.98 "Hg6 mi
12:00 AM73 °FPassing clouds.18 mph78%29.98 "HgN/A
11:30 PM
Nov 27
73 °FPassing clouds.17 mph83%29.98 "HgN/A
11:00 PM73 °FPassing clouds.16 mph78%29.98 "HgN/A
Weather by CustomWeather, © 2014

See weather overviewHow to use our weather pages